Weather History for New Bern, NC

Change the Weather History Date:

Saturday, February 16, 2013

  Actual Average Record
Temperature  
Mean Temperature 44 °F 47 °F  
Max Temperature 52 °F 58 °F 81 °F (2001)
Min Temperature 35 °F 36 °F 20 °F (1958)
Degree Days  
Heating Degree Days 21 18  
Month to date heating degree days 252 304  
Since 1 July heating degree days 1696 1944  
Cooling Degree Days 0 0  
Month to date cooling degree days 0 0  
Year to date cooling degree days 7 1  
Moisture  
Dew Point 35 °F    
Average Humidity 76    
Maximum Humidity 92    
Minimum Humidity 59    
Precipitation  
Precipitation 0.26 in 0.14 in 1.28 in (2003)
Month to date precipitation 2.81 2.00  
Year to date precipitation 4.64 6.02  
Snow  
Snow 0.00 in - - ()
Month to date snowfall 0.0  
Since 1 July snowfall 0.0  
Snow Depth 0.00 in    
Sea Level Pressure  
Sea Level Pressure 29.83 in    
Wind  
Wind Speed 8 mph (North)    
Max Wind Speed 18 mph    
Max Gust Speed 24 mph    
Visibility 7 miles    
Events Rain , Snow    
T = Trace of Precipitation, MM = Missing Value Source: NWS Daily Summary

Daily Weather History Graph

Daily Weather History Graph

Search for Another Location

Airport:

Trip Planner

Search our weather history database for the weather conditions in past years. The results will help you decide how hot, cold, wet, or windy it might be!

Date:

Astronomy

Feb. 16, 2013 Rise Set
Actual Time 6:52 AM EST 5:52 PM EST
Civil Twilight 6:27 AM EST 6:17 PM EST
Nautical Twilight 5:57 AM EST 6:47 PM EST
Astronomical Twilight 5:28 AM EST 7:17 PM EST
Moon 10:21 AM EST (2/16) No Moon Set
Length of Visible Light 11h 50m
Length of Day
10h 59m
Waxing Crescent, 39% of the Moon is Illuminated
Feb 16
Waxing Crescent
Feb 17
First Quarter
Feb 25
Full
Mar 4
Last Quarter
Mar 11
New

Hourly Weather History & Observations

Time (EST) Temp. Windchill Dew Point Humidity Pressure Visibility Wind Dir Wind Speed Gust Speed Precip Events Conditions
12:54 AM 37.9 °F - 35.1 °F 89% 29.96 in 8.0 mi Calm Calm - N/A   Clear
1:54 AM 37.0 °F - 35.1 °F 93% 29.94 in 7.0 mi Calm Calm - N/A   Clear
2:54 AM 37.0 °F - 34.0 °F 89% 29.94 in 10.0 mi Calm Calm - N/A   Clear
3:54 AM 41.0 °F 39.0 °F 37.0 °F 86% 29.93 in 10.0 mi WNW 3.5 mph - N/A   Clear
4:54 AM 41.0 °F 37.1 °F 36.0 °F 82% 29.92 in 10.0 mi NW 5.8 mph - N/A   Clear
5:54 AM 41.0 °F 37.1 °F 36.0 °F 82% 29.90 in 10.0 mi North 5.8 mph - N/A   Clear
6:54 AM 41.0 °F 35.2 °F 36.0 °F 82% 29.91 in 10.0 mi North 9.2 mph - N/A   Clear
7:45 AM 41.0 °F 35.2 °F 37.4 °F 87% 29.91 in 10.0 mi NNE 9.2 mph - N/A   Partly Cloudy
7:54 AM 41.0 °F 35.8 °F 37.0 °F 86% 29.91 in 10.0 mi NNE 8.1 mph - N/A   Partly Cloudy
8:08 AM 41.0 °F 35.2 °F 37.4 °F 87% 29.91 in 10.0 mi NE 9.2 mph - N/A   Mostly Cloudy
8:54 AM 43.0 °F 37.7 °F 37.9 °F 82% 29.91 in 10.0 mi NNE 9.2 mph - N/A   Overcast
9:54 AM 45.0 °F 38.5 °F 39.0 °F 80% 29.89 in 10.0 mi NE 13.8 mph - N/A   Overcast
10:31 AM 46.4 °F 41.1 °F 37.4 °F 71% 29.89 in 10.0 mi NE 11.5 mph - N/A   Overcast
10:54 AM 48.0 °F - 37.9 °F 68% 29.88 in 10.0 mi ENE 10.4 mph - N/A   Overcast
11:54 AM 48.9 °F - 37.9 °F 66% 29.86 in 10.0 mi NE 6.9 mph - N/A   Overcast
12:37 PM 51.8 °F - 37.4 °F 58% 29.83 in 10.0 mi ENE 5.8 mph - N/A   Mostly Cloudy
12:54 PM 51.1 °F - 37.9 °F 61% 29.81 in 10.0 mi Variable 3.5 mph - N/A   Mostly Cloudy
1:15 PM 51.8 °F - 37.4 °F 58% 29.79 in 10.0 mi East 9.2 mph - N/A   Mostly Cloudy
1:54 PM 51.1 °F - 37.9 °F 61% 29.77 in 10.0 mi North 6.9 mph - N/A   Overcast
2:32 PM 50.0 °F - 37.4 °F 62% 29.75 in 10.0 mi NNE 9.2 mph - N/A   Overcast
2:54 PM 50.0 °F - 37.0 °F 61% 29.73 in 10.0 mi NNE 11.5 mph - N/A   Overcast
3:34 PM 48.2 °F - 37.4 °F 66% 29.73 in 9.0 mi NNW 10.4 mph - 0.00 in Rain Light Rain
3:54 PM 44.1 °F 37.4 °F 37.9 °F 79% 29.75 in 2.0 mi NNW 13.8 mph - 0.02 in Rain Rain
4:01 PM 42.8 °F 35.8 °F 37.4 °F 81% 29.75 in 5.0 mi NNW 13.8 mph 21.9 mph 0.01 in Rain Rain
4:20 PM 42.8 °F 36.2 °F 37.4 °F 81% 29.75 in 8.0 mi NNW 12.7 mph - 0.03 in Rain Light Rain
4:54 PM 39.9 °F 31.4 °F 35.1 °F 83% 29.76 in 5.0 mi NNW 16.1 mph 24.2 mph 0.05 in Rain Rain
5:05 PM 37.4 °F 28.2 °F 33.8 °F 87% 29.77 in 2.5 mi NW 16.1 mph 24.2 mph 0.03 in Rain Rain
5:18 PM 37.4 °F 30.3 °F 33.8 °F 87% 29.78 in 4.0 mi NW 10.4 mph - 0.04 in Rain Rain
5:39 PM 35.6 °F 28.6 °F 33.8 °F 93% 29.79 in 1.5 mi North 9.2 mph 18.4 mph 0.08 in Rain , Snow Rain
5:47 PM 37.4 °F 30.3 °F 33.8 °F 87% 29.79 in 1.5 mi NNW 10.4 mph - 0.10 in Rain , Snow Rain
5:54 PM 37.0 °F 30.4 °F 33.1 °F 86% 29.79 in 1.5 mi NNW 9.2 mph - 0.11 in Rain , Snow Rain
6:01 PM 35.6 °F 28.0 °F 33.8 °F 93% 29.80 in 5.0 mi NW 10.4 mph - 0.01 in Rain , Snow Rain
6:16 PM 35.6 °F 28.6 °F 32.0 °F 87% 29.79 in 2.0 mi NW 9.2 mph - 0.02 in Rain , Snow Rain
6:54 PM 35.1 °F 27.4 °F 32.0 °F 89% 29.80 in 2.0 mi NNW 10.4 mph - 0.04 in Rain , Snow Rain
7:01 PM 35.6 °F 29.9 °F 32.0 °F 87% 29.80 in 3.0 mi NNW 6.9 mph - 0.00 in Rain , Snow Rain
7:54 PM 35.1 °F 27.9 °F 32.0 °F 89% 29.80 in 2.0 mi North 9.2 mph - 0.02 in Rain , Snow Rain
8:10 PM 35.6 °F 28.0 °F 32.0 °F 87% 29.79 in 3.0 mi North 10.4 mph - 0.01 in Rain , Snow Rain
8:54 PM 36.0 °F 28.0 °F 32.0 °F 86% 29.82 in 9.0 mi WNW 11.5 mph - 0.01 in   Overcast
9:54 PM 36.0 °F 29.0 °F 33.1 °F 89% 29.83 in 10.0 mi NW 9.2 mph - 0.01 in   Overcast
10:24 PM 35.6 °F 28.6 °F 32.0 °F 87% 29.84 in 9.0 mi NW 9.2 mph 18.4 mph 0.00 in Snow Light Snow
10:54 PM 36.0 °F 27.1 °F 32.0 °F 86% 29.84 in 6.0 mi NW 13.8 mph 18.4 mph 0.00 in Snow Light Snow
11:54 PM 35.1 °F 27.9 °F 32.0 °F 89% 29.86 in 3.0 mi NW 9.2 mph - 0.00 in Snow Light Snow